DW7921 Weather Reports


Display with metric or nautical units.
time (UTC)temp
F
wind
direction
speed
MPH
gust
MPH
rain 1hr
in
rain 24hr
in
rain mn
in
humidity
%
barometer
mb
20260505100055 53 250 0.0 0.0 0.00 0.00 0.00 88 1013.3
20260505094533 53 245 0.0 4.0 0.00 0.00 0.00 88 1013.3
20260505093030 53 224 0.0 0.0 0.00 0.00 0.00 88 1013.1
20260505091529 53 243 0.0 1.0 0.00 0.00 0.00 88 1013.0
20260505090028 53 248 0.0 6.0 0.00 0.00 0.00 88 1012.9
20260505084527 53 259 0.0 0.0 0.00 0.00 0.00 88 1012.8
20260505083025 53 293 0.0 0.0 0.00 0.00 0.00 88 1012.8
20260505081524 53 246 0.0 0.0 0.00 0.00 0.00 88 1012.8
20260505080025 53 250 0.0 0.0 0.00 0.00 0.00 88 1012.7
20260505074521 53 235 0.0 1.0 0.00 0.00 0.00 87 1012.5
20260505073032 54 200 0.0 0.0 0.00 0.00 0.00 87 1012.4
20260505071515 54 264 0.0 1.0 0.00 0.00 0.00 87 1012.2
20260505070014 54 269 0.0 1.0 0.00 0.00 0.00 87 1012.1
20260505064516 54 243 0.0 0.0 0.00 0.00 0.00 87 1012.0
20260505063008 54 255 0.0 0.0 0.00 0.00 0.00 87 1011.9
20260505061516 55 246 0.0 0.0 0.00 0.00 0.00 86 1011.7
20260505060002 55 242 0.0 0.0 0.00 0.00 0.00 86 1011.5
20260505054601 56 264 0.0 0.0 0.00 0.00 0.00 85 1011.4
20260505053058 57 281 0.0 0.0 0.00 0.00 0.00 84 1011.2
20260505051557 57 242 0.0 0.0 0.00 0.00 0.00 83 1011.2
20260505041552 61 247 0.0 2.0 0.00 0.00 0.00 77 1010.4
20260505040052 62 257 0.0 5.0 0.00 0.00 0.00 75 1010.2
20260505034552 63 271 0.0 2.0 0.00 0.00 0.00 73 1009.9
20260505033052 64 263 0.0 1.0 0.00 0.00 0.00 70 1009.8
20260505031552 66 276 0.0 2.0 0.00 0.00 0.00 68 1009.6
20260505030050 67 248 0.0 1.0 0.00 0.00 0.00 65 1009.4
20260505024553 69 240 0.0 0.0 0.00 0.00 0.00 61 1009.2
20260505023052 71 274 0.0 1.0 0.00 0.00 0.00 58 1009.2
20260505021547 72 264 0.0 1.0 0.00 0.00 0.00 55 1009.2
20260505020049 74 220 0.0 1.0 0.00 0.00 0.00 54 1009.2
20260505014551 74 264 0.0 1.0 0.00 0.00 0.00 54 1009.1
20260505013044 75 240 0.0 1.0 0.00 0.00 0.00 53 1009.2
20260505011543 76 259 0.0 0.0 0.00 0.00 0.00 52 1009.2
20260505004540 77 240 0.0 0.0 0.00 0.00 0.00 49 1009.3
20260505003042 77 282 0.0 0.0 0.00 0.00 0.00 50 1009.3
20260505001538 77 197 0.0 3.0 0.00 0.00 0.00 49 1009.3
20260505000044 77 193 0.0 1.0 0.00 0.00 0.00 51 1009.4
20260504234538 77 285 0.0 1.0 0.00 0.00 0.00 49 1009.4
20260504233037 78 260 0.0 1.0 0.00 0.00 0.00 48 1009.4
20260504231540 77 297 0.0 1.0 0.00 0.00 0.00 48 1009.3
20260504230041 78 284 0.0 1.0 0.00 0.00 0.00 45 1009.5
20260504224535 78 288 0.0 1.0 0.00 0.00 0.00 41 1009.8
20260504223032 79 232 0.0 0.0 0.00 0.00 0.00 41 1009.9
20260504221545 78 195 0.0 0.0 0.00 0.00 0.00 42 1010.0
20260504220033 77 273 0.0 0.0 0.00 0.00 0.00 45 1010.1
20260504214527 76 298 0.0 1.0 0.00 0.00 0.00 46 1010.3
20260504213030 75 264 0.0 1.0 0.00 0.00 0.00 46 1010.4
20260504211523 75 240 0.0 1.0 0.00 0.00 0.00 46 1010.5
20260504210023 74 253 0.0 1.0 0.00 0.00 0.00 49 1010.5
20260504204519 74 310 0.0 0.0 0.00 0.00 0.00 55 1010.6
20260504203016 73 241 0.0 0.0 0.00 0.00 0.00 55 1010.6
20260504201516 73 273 0.0 0.0 0.00 0.00 0.00 56 1010.5
20260504200015 72 222 0.0 0.0 0.00 0.00 0.00 58 1010.6
20260504194517 71 257 0.0 0.0 0.00 0.00 0.00 57 1010.7
20260504193014 72 281 0.0 0.0 0.00 0.00 0.00 54 1010.8
20260504191513 71 267 0.0 1.0 0.00 0.00 0.00 56 1010.9
20260504190012 73 233 0.0 0.0 0.00 0.00 0.00 53 1010.9
20260504184514 71 229 0.0 0.0 0.00 0.00 0.00 56 1011.0
20260504183009 71 143 0.0 0.0 0.00 0.00 0.00 57 1011.0
20260504181514 71 277 0.0 0.0 0.00 0.00 0.00 54 1011.1
20260504180012 71 226 0.0 0.0 0.00 0.00 0.00 54 1011.2
20260504174506 70 238 0.0 0.0 0.00 0.00 0.00 56 1011.1
20260504173004 71 253 0.0 0.0 0.00 0.00 0.00 54 1011.0
20260504171502 70 162 0.0 0.0 0.00 0.00 0.00 54 1011.0